Home   Weather   Greeley   Past weeks

Flag for USA Past Weather in Greeley, Colorado, USA — Yesterday and Last 2 Weeks

Now
57 °F

Sunny.


Feels Like: 57 °F
Forecast: 47 / 78 °F
Wind: 3 mph from Southwest

Location: Greeley / Weld

Current Time: Oct 1, 2016 at 9:31:54 AM

Latest Report: Oct 1, 2016 at 8:55 AM


Visibility: 10 mi

Pressure: 30.14 "Hg (25.44 "Hg at 1424m altitude)

Humidity: 67%

Dew Point: 46 °F

Location of GreeleyLocation

Past Weather in Greeley — Graph

°F

Greeley Temperature Yesterday

Maximum temperature yesterday: 75 °F (at 4:15 PM)
Minimum temperature yesterday: 50 °F (at 10:35 PM)
Average temperature yesterday: 61 °F

High & Low Weather Summary for the Past Weeks

 TemperatureHumidityPressure
High91 °F (Sep 19, 1:55 PM)94% (Sep 23, 7:15 AM)30.48 "Hg (Sep 23, 7:15 AM)
Low37 °F (Sep 26, 5:55 AM)11% (Sep 19, 2:15 PM)29.66 "Hg (Sep 23, 4:35 PM)
Average63 °F49%30.15 "Hg
* Reported Sep 16 8:15 AM — Oct 1 8:35 AM, Greeley, Weather by CustomWeather, © 2016

Note: Actual official high and low records may vary slightly from our data, if they occured in-between our weather recording intervals... More about our weather records

Advertising

Greeley Weather History for the Previous 24 Hours

Scroll right to see more
 ConditionsComfort  
Time TempWeatherWind HumidityBarometerVisibility
8:35 AM
Sat, Oct 1
55 °FSunny.No wind72%30.14 "Hg10 mi
8:15 AM54 °FSunny.No wind72%30.15 "Hg10 mi
7:55 AM52 °FSunny.No wind77%30.14 "Hg10 mi
7:35 AM46 °FSunny.No wind87%30.14 "Hg10 mi
7:15 AM45 °FSunny.No wind81%30.14 "Hg10 mi
6:55 AM45 °FSunny.No wind87%30.13 "Hg10 mi
6:35 AM45 °FClear.6 mph87%30.13 "Hg10 mi
6:15 AM46 °FClear.No wind82%30.13 "Hg10 mi
5:55 AM46 °FClear.No wind87%30.13 "Hg10 mi
5:35 AM48 °FPassing clouds.5 mph82%30.13 "Hg10 mi
11:55 PM
Fri, Sep 30
52 °FClear.8 mph72%30.16 "Hg10 mi
11:35 PM54 °FClear.7 mph72%30.16 "Hg10 mi
11:15 PM52 °FClear.7 mph72%30.17 "Hg10 mi
10:55 PM52 °FClear.No wind72%30.17 "Hg10 mi
10:35 PM50 °FClear.7 mph76%30.17 "Hg10 mi
10:15 PM54 °FClear.3 mph72%30.16 "Hg10 mi
9:15 PM57 °FClear.No wind63%30.16 "Hg10 mi
8:55 PM59 °FClear.No wind59%30.16 "Hg10 mi
8:35 PM61 °FClear.5 mph55%30.16 "Hg10 mi
8:15 PM61 °FClear.6 mph55%30.16 "Hg9 mi
7:55 PM61 °FClear.5 mph59%30.15 "Hg10 mi
7:35 PM64 °FClear.6 mph49%30.15 "Hg10 mi
7:15 PM64 °FClear.6 mph46%30.14 "Hg10 mi
6:55 PM68 °FClear.5 mph40%30.14 "Hg10 mi
6:35 PM70 °FSunny.6 mph38%30.14 "Hg10 mi
6:15 PM72 °FSunny.6 mph36%30.15 "Hg10 mi
5:55 PM73 °FSunny.7 mph33%30.15 "Hg10 mi
5:35 PM75 °FSunny.7 mph31%30.15 "Hg10 mi
5:15 PM75 °FPassing clouds.8 mph34%30.15 "Hg10 mi
4:55 PM73 °FSunny.6 mph38%30.15 "Hg10 mi
4:35 PM73 °FSunny.7 mph41%30.15 "Hg10 mi
4:15 PM75 °FSunny.9 mph41%30.15 "Hg10 mi
3:55 PM73 °FSunny.6 mph44%30.15 "Hg10 mi
3:35 PM73 °FSunny.7 mph47%30.16 "Hg10 mi
3:15 PM72 °FSunny.No wind50%30.16 "Hg10 mi
2:55 PM70 °FSunny.6 mph53%30.17 "Hg10 mi
2:35 PM70 °FSunny.7 mph50%30.18 "Hg10 mi
2:15 PM70 °FSunny.6 mph50%30.19 "Hg10 mi
1:55 PM68 °FPassing clouds.3 mph49%30.20 "Hg10 mi
1:35 PM66 °FPassing clouds.No wind52%30.20 "Hg10 mi
1:15 PM66 °FScattered clouds.No wind52%30.21 "Hg10 mi
12:55 PM68 °FPartly sunny.5 mph49%30.22 "Hg8 mi
12:35 PM68 °FPartly sunny.3 mph49%30.22 "Hg10 mi
12:15 PM68 °FSunny.6 mph49%30.23 "Hg10 mi
11:55 AM66 °FPassing clouds.3 mph49%30.23 "Hg10 mi
11:35 AM64 °FPassing clouds.No wind52%30.23 "Hg10 mi
11:15 AM63 °FSunny.No wind52%30.24 "Hg10 mi
10:55 AM61 °FScattered clouds.No wind55%30.24 "Hg10 mi
10:35 AM61 °FPartly sunny.No wind55%30.24 "Hg10 mi
10:15 AM61 °FPartly sunny.5 mph52%30.24 "Hg10 mi
9:55 AM61 °FPartly sunny.No wind52%30.24 "Hg10 mi
9:35 AM61 °FScattered clouds.No wind52%30.24 "Hg10 mi
9:15 AM57 °FPartly sunny.5 mph59%30.24 "Hg10 mi
Weather by CustomWeather, © 2016

See weather overviewHow to use our weather pages